Regional Weather Roundup
Issued by NWS

Home | Current Version | Previous Version | Text Only | Print | Product List | Glossary On
Versions: 1 2 3 4 5 6 7 8 9 10 11 12 13 14 15 16 17 18 19 20 21 22 23 24 25 26 27 28 29 30 31 32 33 34 35 36 37 38 39 40 41 42 43 44 45 46 47 48 49 50
000
ASUS43 KLSX 200207
RWRMO

WEATHER SUMMARY FOR MISSOURI
NATIONAL WEATHER SERVICE SPRINGFIELD MO
800 PM CST MON FEB 19 2018

NOTE: "FAIR" INDICATES FEW OR NO CLOUDS BELOW 12,000 FEET WITH NO
       SIGNIFICANT WEATHER AND/OR OBSTRUCTIONS TO VISIBILITY.
       CURRENT SKY AND/OR WEATHER CONDITIONS ARE NOT AVAILABLE FOR
       CHILLICOTHE AND FARMINGTON.

MOZ001>031-035>038-043-044-053-054-200300-
...NORTHERN AND WESTERN MISSOURI...

CITY           SKY/WX    TMP DP  RH WIND       PRES   REMARKS
KANSAS CTY INT CLOUDY    30  27  88 NW7       29.83S WCI  23
KANSAS C DTWN  LGT RAIN  34  29  82 NW6       29.83F WCI  29
LEE`S SUMMIT   CLOUDY    33  33 100 N7        29.82F FOG     WCI  27
ST JOSEPH      CLOUDY    28  28 100 NW8       29.86S WCI  20
CHILLICOTHE      N/A     36  34  92 NW3       29.83S
KIRKSVILLE     LGT RAIN  42  42 100 NW6       29.79S FOG

$$
MOZ066>068-077>081-088>096-101>105-200300-
...SOUTHWEST MISSOURI...

CITY           SKY/WX    TMP DP  RH WIND       PRES   REMARKS
SPRINGFIELD    MOCLDY    65  59  81 S15       29.81F
JOPLIN         LGT RAIN  64  64 100 S15       29.76F
BRANSON        CLOUDY    66  57  72 SE12G18   29.88S

$$
MOZ032>034-039>042-045>050-055>058-069>072-200300-
...CENTRAL MISSOURI...

CITY           SKY/WX    TMP DP  RH WIND       PRES   REMARKS
COLUMBIA       TSTM      66  60  81 S17G29    29.80R
JEFFERSON CITY LGT RAIN  66  59  78 S17G24    29.82R
ROLLA          CLOUDY    64  56  75 S18G24    29.85R
SEDALIA        LGT RAIN  42  42 100 NW7       29.83R
WHITEMAN AFB   DRIZZLE   38  37  94 N7        29.78S
WARRENSBURG    CLOUDY    36  34  93 NW5       29.83S
OSAGE BEACH    HVY RAIN  63  61  94 SW13G24   29.84S FOG

$$
MOZ051-052-059>065-200300-
...EAST CENTRAL MISSOURI...

CITY           SKY/WX    TMP DP  RH WIND       PRES   REMARKS
ST LOUIS INTL  CLOUDY    66  58  75 S18G25    29.85F
SPIRIT OF STL  MOCLDY    68  58  70 S14G24    29.83S
ST CHARLES     CLOUDY    65  57  75 S18       29.83S

$$
MOZ072>076-082>087-097>100-106>115-200300-
...SOUTH CENTRAL AND SOUTHEAST MISSOURI...

CITY           SKY/WX    TMP DP  RH WIND       PRES   REMARKS
CAPE GIRARDEAU CLOUDY    68  58  70 S14       29.99R
FARMINGTON     CLOUDY    66  59  78 S15G25    29.93S
POPLAR BLUFF   CLOUDY    66  60  81 S7        29.97S
WEST PLAINS    MOCLDY    66  56  70 S15G23    29.91F

$$



USA.gov is the U.S. government's official web portal to all federal, state and local government web resources and services.